Total_Precipitation_Accumulation
1.72 1.88 1.82 1.73 1.65 1.70 1.63 1.48 1.31 1.33 1.29 1.12 0.99 0.99 1.02 1.04 1.05 1.17 1.31 1.19 1.16 1.33 1.65 1.84 1.93 1.86 1.79 1.77 1.70 1.59 1.44 1.28 1.14 1.00 0.85 0.74 0.66 0.64 0.64 0.65 0.66 0.63 0.63
2.15 2.29 2.27 2.12 1.93 1.95 1.88 1.75 1.66 1.67 1.59 1.53 1.40 1.28 1.17 1.25 1.23 1.27 1.45 1.45 1.33 1.36 1.68 2.03 2.21 2.18 2.11 2.05 1.90 1.73 1.65 1.59 1.51 1.38 1.23 1.04 0.91 0.82 0.79 0.76 0.76 0.73 0.68
2.56 2.57 2.59 2.40 2.23 2.20 2.24 2.15 2.05 2.00 1.79 1.68 1.61 1.53 1.45 1.36 1.36 1.39 1.59 1.84 1.73 1.69 1.78 1.85 1.96 2.09 2.20 2.34 2.31 2.12 1.99 1.86 1.77 1.70 1.58 1.43 1.27 1.12 1.04 0.97 0.94 0.88 0.81
2.72 2.82 2.81 2.69 2.52 2.39 2.55 2.66 2.55 2.42 2.23 2.14 2.04 1.89 1.70 1.64 1.65 1.77 1.87 2.03 2.20 2.11 2.07 1.89 1.77 1.86 2.11 2.33 2.42 2.40 2.23 2.01 1.90 1.88 1.83 1.74 1.55 1.39 1.25 1.20 1.16 1.07 0.98
3.10 3.13 3.07 3.07 3.01 2.99 2.98 2.81 2.85 2.70 2.68 2.59 2.22 2.07 1.84 1.79 1.87 1.87 2.01 2.07 2.18 2.18 2.15 1.95 1.82 1.80 1.97 2.25 2.35 2.49 2.48 2.36 2.22 2.05 1.95 1.91 1.80 1.64 1.43 1.33 1.28 1.20 1.09
3.56 3.66 3.60 3.51 3.49 3.43 3.25 3.19 3.13 2.96 2.79 2.67 2.30 2.08 1.90 1.78 1.77 1.83 1.87 1.85 1.84 1.82 1.82 1.88 2.02 1.89 1.92 1.99 2.01 2.16 2.36 2.49 2.36 2.20 2.09 2.02 1.89 1.72 1.55 1.44 1.37 1.32 1.26
4.24 4.23 4.07 3.82 3.68 3.69 3.58 3.51 3.32 3.14 2.92 2.72 2.61 2.33 1.93 1.69 1.67 1.63 1.63 1.63 1.63 1.66 1.71 1.74 1.76 1.72 1.73 1.77 1.71 1.81 1.99 2.23 2.30 2.31 2.29 2.19 2.06 1.89 1.73 1.59 1.54 1.50 1.42
4.51 4.46 4.46 4.37 4.14 3.95 3.76 3.55 3.45 3.29 2.94 2.75 2.70 2.61 2.22 1.86 1.53 1.35 1.32 1.31 1.36 1.51 1.51 1.47 1.51 1.57 1.60 1.64 1.68 1.80 1.88 1.97 2.13 2.20 2.15 2.10 2.04 2.01 1.96 1.84 1.71 1.65 1.58
4.79 4.64 4.49 4.26 4.07 3.94 3.81 3.61 3.39 3.24 2.99 2.80 2.68 2.72 2.52 2.18 1.73 1.44 1.26 1.19 1.17 1.25 1.30 1.32 1.32 1.36 1.42 1.47 1.50 1.68 1.78 1.79 1.90 1.96 1.97 1.95 1.94 1.92 1.93 1.91 1.87 1.81 1.76
4.40 4.16 4.04 3.94 3.78 3.50 3.27 3.12 2.98 2.78 2.63 2.50 2.45 2.32 2.20 2.03 1.97 1.82 1.60 1.46 1.38 1.36 1.34 1.29 1.26 1.33 1.36 1.44 1.57 1.67 1.69 1.70 1.82 1.83 1.81 1.80 1.83 1.88 1.93 1.96 1.94 1.93 1.92
3.82 3.56 3.44 3.27 3.05 2.71 2.37 2.25 2.29 2.33 2.28 2.20 2.17 2.14 2.09 1.95 1.86 1.82 1.78 1.66 1.58 1.49 1.45 1.48 1.47 1.47 1.44 1.44 1.47 1.63 1.62 1.49 1.57 1.64 1.72 1.76 1.75 1.79 1.83 1.87 1.88 1.87 1.88
3.28 2.92 2.59 2.30 2.08 1.90 1.68 1.62 1.65 1.74 1.90 1.97 2.04 2.02 1.95 1.88 1.86 1.86 1.81 1.78 1.73 1.62 1.50 1.45 1.46 1.45 1.43 1.41 1.44 1.57 1.38 1.30 1.25 1.27 1.39 1.47 1.49 1.49 1.56 1.67 1.76 1.82 1.91
2.59 2.29 1.99 1.82 1.65 1.55 1.46 1.39 1.35 1.36 1.45 1.58 1.69 1.78 1.83 1.83 1.81 1.85 1.95 1.98 1.83 1.71 1.59 1.49 1.42 1.39 1.40 1.38 1.38 1.44 1.28 1.20 1.12 1.07 1.06 1.10 1.13 1.17 1.26 1.40 1.52 1.60 1.66
1.88 1.61 1.40 1.25 1.17 1.16 1.14 1.16 1.15 1.16 1.19 1.25 1.35 1.47 1.60 1.66 1.66 1.66 1.69 1.77 1.83 1.76 1.57 1.47 1.38 1.30 1.24 1.14 1.16 1.14 1.01 1.06 0.97 0.92 0.89 0.88 0.89 0.89 0.92 0.94 0.99 1.04 1.06
1.21 1.05 0.94 0.91 0.86 0.84 0.85 0.85 0.86 0.90 0.97 1.02 1.05 1.11 1.20 1.29 1.35 1.40 1.45 1.50 1.61 1.65 1.51 1.30 1.24 1.19 1.05 0.93 0.96 0.77 0.73 0.80 0.73 0.68 0.65 0.65 0.66 0.67 0.67 0.71 0.75 0.78 0.78
0.86 0.79 0.71 0.66 0.61 0.58 0.59 0.61 0.62 0.63 0.69 0.77 0.80 0.85 0.93 1.00 1.10 1.16 1.24 1.31 1.32 1.36 1.36 1.17 1.00 0.96 0.89 0.78 0.82 0.65 0.62 0.64 0.56 0.54 0.52 0.54 0.57 0.61 0.61 0.62 0.64 0.67 0.69
0.60 0.54 0.49 0.45 0.45 0.45 0.47 0.53 0.58 0.59 0.59 0.61 0.64 0.68 0.72 0.75 0.83 0.90 0.90 0.94 1.03 1.09 1.12 1.04 0.89 0.79 0.76 0.72 0.70 0.68 0.62 0.58 0.51 0.52 0.49 0.49 0.50 0.52 0.53 0.53 0.53 0.58 0.64
0.45 0.40 0.37 0.36 0.38 0.39 0.39 0.41 0.44 0.48 0.53 0.54 0.53 0.55 0.58 0.60 0.66 0.69 0.72 0.75 0.83 0.91 0.95 1.00 0.93 0.82 0.75 0.72 0.68 0.69 0.56 0.47 0.45 0.48 0.44 0.40 0.40 0.40 0.41 0.40 0.40 0.41 0.43
0.41 0.37 0.34 0.33 0.32 0.31 0.31 0.32 0.33 0.36 0.42 0.47 0.46 0.49 0.51 0.52 0.53 0.52 0.57 0.64 0.72 0.81 0.92 0.93 0.88 0.80 0.71 0.64 0.65 0.59 0.54 0.59 0.44 0.41 0.37 0.32 0.32 0.31 0.30 0.29 0.28 0.28 0.29
0.32 0.31 0.29 0.30 0.29 0.27 0.27 0.27 0.28 0.30 0.35 0.39 0.38 0.38 0.40 0.42 0.45 0.49 0.50 0.59 0.68 0.82 0.90 0.89 0.80 0.72 0.67 0.62 0.70 0.68 0.63 0.61 0.51 0.36 0.34 0.29 0.28 0.26 0.26 0.26 0.24 0.23 0.23
0.30 0.26 0.23 0.24 0.20 0.19 0.19 0.20 0.24 0.29 0.35 0.35 0.33 0.31 0.30 0.29 0.34 0.40 0.42 0.50 0.63 0.78 0.81 0.80 0.75 0.69 0.65 0.66 0.67 0.63 0.67 0.63 0.52 0.39 0.39 0.35 0.34 0.37 0.41 0.37 0.30 0.26 0.22
0.25 0.22 0.21 0.23 0.21 0.16 0.18 0.19 0.20 0.26 0.33 0.35 0.32 0.29 0.25 0.23 0.25 0.31 0.35 0.42 0.54 0.64 0.72 0.77 0.73 0.70 0.66 0.66 0.69 0.69 0.72 0.72 0.67 0.47 0.47 0.40 0.34 0.44 0.47 0.45 0.39 0.28 0.21
0.29 0.27 0.27 0.27 0.29 0.23 0.16 0.15 0.17 0.22 0.29 0.31 0.31 0.31 0.27 0.24 0.29 0.34 0.33 0.32 0.36 0.39 0.50 0.68 0.77 0.75 0.76 0.79 0.88 0.86 0.82 0.81 0.77 0.59 0.63 0.59 0.46 0.51 0.41 0.39 0.44 0.36 0.28
0.34 0.33 0.33 0.34 0.35 0.26 0.16 0.12 0.14 0.22 0.27 0.25 0.25 0.29 0.35 0.36 0.30 0.32 0.31 0.35 0.40 0.42 0.44 0.52 0.69 0.73 0.70 0.75 0.84 0.88 0.88 0.86 0.79 0.73 0.75 0.75 0.54 0.51 0.43 0.60 0.63 0.55 0.43
0.38 0.37 0.39 0.42 0.41 0.30 0.19 0.16 0.18 0.26 0.30 0.26 0.23 0.22 0.23 0.26 0.24 0.27 0.33 0.46 0.50 0.54 0.42 0.49 0.60 0.66 0.68 0.72 0.74 0.79 0.92 1.00 0.95 0.81 0.72 0.74 0.66 0.56 0.57 0.77 0.75 0.75 0.62
0.37 0.33 0.38 0.46 0.42 0.33 0.22 0.18 0.21 0.26 0.31 0.32 0.33 0.31 0.22 0.19 0.21 0.24 0.32 0.46 0.55 0.54 0.59 0.77 0.89 0.88 0.83 0.81 0.75 0.82 0.96 1.01 1.00 0.96 0.77 0.75 0.80 0.73 0.76 0.83 0.89 0.84 0.77